This is the latest recevied weather packets stored in our database for station/object AD7ZD. If no packets are shown the sender has not sent any weather packets the latest 10 day(s).
| Time | Temp. | Humidity | Pressure | Rain* | Wind** | Luminosity | Snow |
|---|---|---|---|---|---|---|---|
| 1778053518 | 11.67° C | 70% | 1013.4 hPa | 0 mm | - | 0 W/m² | - |
| 1778053215 | 11.67° C | 72% | 1013.4 hPa | 0 mm | - | 0 W/m² | - |
| 1778052913 | 11.11° C | 76% | 1013.3 hPa | 0 mm | - | 0 W/m² | - |
| 1778052610 | 11.11° C | 75% | 1013.4 hPa | 0 mm | - | 0 W/m² | - |
| 1778052307 | 11.11° C | 76% | 1013.1 hPa | 0 mm | - | 0 W/m² | - |
| 1778052005 | 11.67° C | 75% | 1013.3 hPa | 0 mm | - | 0 W/m² | - |
| 1778051703 | 11.67° C | 76% | 1013 hPa | 0 mm | - | 0 W/m² | - |
| 1778051400 | 11.67° C | 76% | 1013.1 hPa | 0 mm | - | 0 W/m² | - |
| 1778051097 | 11.11° C | 77% | 1013.1 hPa | 0 mm | - | 0 W/m² | - |
| 1778050794 | 12.22° C | 72% | 1013 hPa | 0 mm | - | 0 W/m² | - |
| 1778050491 | 11.67° C | 73% | 1012.8 hPa | 0 mm | - | 0 W/m² | - |
| 1778050188 | 11.67° C | 74% | 1012.8 hPa | 0 mm | - | 0 W/m² | - |
| 1778049884 | 12.22° C | 72% | 1012.8 hPa | 0 mm | - | 0 W/m² | - |
| 1778049581 | 11.11° C | 77% | 1012.8 hPa | 0 mm | - | 0 W/m² | - |
| 1778049278 | 11.11° C | 78% | 1012.7 hPa | 0 mm | - | 0 W/m² | - |
| 1778048976 | 11.11° C | 78% | 1012.7 hPa | 0 mm | - | 0 W/m² | - |
| 1778048674 | 11.67° C | 75% | 1012.6 hPa | 0 mm | - | 0 W/m² | - |
| 1778048370 | 12.22° C | 73% | 1012.6 hPa | 0 mm | - | 0 W/m² | - |
| 1778048067 | 12.22° C | 73% | 1012.3 hPa | 0 mm | - | 0 W/m² | - |
| 1778047765 | 12.22° C | 72% | 1012.5 hPa | 0 mm | - | 0 W/m² | - |
| 1778047463 | 12.78° C | 70% | 1012.1 hPa | 0 mm | - | 0 W/m² | - |
| 1778047159 | 12.78° C | 66% | 1012.1 hPa | 0 mm | - | 0 W/m² | - |
| 1778046856 | 12.22° C | 70% | 1012.1 hPa | 0 mm | - | 0 W/m² | - |
| 1778046553 | 13.89° C | 61% | 1012 hPa | 0 mm | - | 0 W/m² | - |
| 1778046250 | 13.33° C | 64% | 1011.8 hPa | 0 mm | - | 0 W/m² | - |
* Rain latest hour (hover to see other rain measurements)
** Current wind speed in m/s (hover to see current wind gust speed)